Beaumont, TX

3:04 AM CST on November 19, 2017 (GMT -0600)
Southeast Texas Regional

Weather History for KBPT - November, 2013

Change the Weather History Date:

Wednesday, November 6, 2013

  Actual Average Record
Temperature  
Mean Temperature 69 °F 65 °F  
Max Temperature 82 °F 75 °F 88 °F (2015)
Min Temperature 56 °F 55 °F 35 °F (1959)
Degree Days  
Heating Degree Days 0 3  
Month to date heating degree days 9 18  
Since 1 July heating degree days 18 52  
Cooling Degree Days 4 3  
Month to date cooling degree days 17 20  
Year to date cooling degree days 2962 2811  
Growing Degree Days 14 (Base 50)    
Moisture  
Dew Point 66 °F    
Average Humidity 85    
Maximum Humidity 100    
Minimum Humidity 69    
Precipitation  
Precipitation 0.07 in 0.15 in 3.60 in (1925)
Month to date precipitation 0.34 0.91  
Year to date precipitation 51.47 51.69  
Snow  
Snow 0.00 in 0.00 in 0.00 in ()
Month to date snowfall 0.0 0.0  
Since 1 July snowfall 0.0 0.0  
Since 1 September snowfall 0.0 0.0  
Snow Depth 0.00 in    
Sea Level Pressure  
Sea Level Pressure 30.08 in    
Wind  
Wind Speed 10 mph (NE)    
Max Wind Speed 24 mph    
Max Gust Speed 30 mph    
Visibility 10 miles    
Events Rain    
T = Trace of Precipitation, MM = Missing Value Source: NWS Daily Summary

Daily Weather History Graph

Daily Weather History Graph

Search for Another Location

Airport or City:

Trip Planner

Search our weather history database for the weather conditions in past years. The results will help you decide how hot, cold, wet, or windy it might be!

Date:

Astronomy

Nov. 06, 2013 Rise Set
Actual Time 6:33 AM CST 5:25 PM CST
Civil Twilight 6:09 AM CST 5:49 PM CST
Nautical Twilight 5:40 AM CST 6:18 PM CST
Astronomical Twilight 5:12 AM CST 6:46 PM CST
Moon 9:43 AM CST (11/6) 8:35 PM CST (11/6)
Length of Visible Light 11h 40m
Length of Day
10h 51m
Waxing Crescent, 14% of the Moon is Illuminated
Nov 6
Waxing Crescent
Nov 9
First Quarter
Nov 17
Full
Nov 25
Last Quarter
Dec 2
New

Hourly Weather History & Observations

Time (CST) Temp. Heat Index Dew Point Humidity Pressure Visibility Wind Dir Wind Speed Gust Speed Precip Events Conditions
12:53 AM 71.1 °F - 69.1 °F 93% 30.04 in 8.0 mi East 10.4 mph - 0.03 in   Overcast
1:53 AM 71.1 °F - 68.0 °F 90% 30.03 in 10.0 mi East 9.2 mph - 0.00 in   Overcast
2:45 AM 69.8 °F - 68.0 °F 94% 30.02 in 10.0 mi East 8.1 mph - N/A   Overcast
2:53 AM 70.0 °F - 69.1 °F 97% 30.02 in 10.0 mi East 9.2 mph - N/A   Overcast
3:22 AM 71.6 °F - 69.8 °F 94% 30.02 in 8.0 mi East 8.1 mph - N/A   Overcast
3:53 AM 70.0 °F - 69.1 °F 97% 30.02 in 9.0 mi East 10.4 mph - N/A   Overcast
3:57 AM 69.8 °F - 69.8 °F 100% 30.02 in 9.0 mi ESE 11.5 mph - 0.00 in Rain Light Rain
4:53 AM 71.1 °F - 69.1 °F 93% 30.01 in 10.0 mi ESE 12.7 mph - 0.00 in   Overcast
5:43 AM 71.6 °F - 69.8 °F 94% 30.02 in 10.0 mi ESE 10.4 mph - N/A   Overcast
5:53 AM 70.0 °F - 69.1 °F 97% 30.03 in 10.0 mi East 9.2 mph - N/A   Overcast
6:53 AM 70.0 °F - 68.0 °F 93% 30.04 in 10.0 mi East 5.8 mph - N/A   Overcast
7:53 AM 71.1 °F - 69.1 °F 93% 30.05 in 10.0 mi East 10.4 mph - N/A   Mostly Cloudy
8:53 AM 73.9 °F - 70.0 °F 87% 30.07 in 10.0 mi East 8.1 mph - N/A   Clear
9:53 AM 77.0 °F - 70.0 °F 79% 30.09 in 10.0 mi SE 6.9 mph - N/A   Scattered Clouds
10:53 AM 80.1 °F 83.6 °F 71.1 °F 74% 30.08 in 10.0 mi South 8.1 mph - N/A   Scattered Clouds
11:08 AM 78.8 °F - 69.8 °F 74% 30.08 in 10.0 mi ESE 8.1 mph - N/A   Mostly Cloudy
11:53 AM 80.1 °F 83.2 °F 70.0 °F 71% 30.06 in 10.0 mi Variable 5.8 mph - N/A   Mostly Cloudy
12:53 PM 78.1 °F - 71.1 °F 79% 30.04 in 10.0 mi ESE 9.2 mph - 0.00 in   Mostly Cloudy
1:00 PM 80.6 °F 84.6 °F 71.6 °F 74% 30.04 in 10.0 mi SE 9.2 mph - N/A   Mostly Cloudy
1:53 PM 81.0 °F 84.9 °F 71.1 °F 72% 30.02 in 10.0 mi SE 8.1 mph - N/A   Mostly Cloudy
2:35 PM 73.4 °F - 69.8 °F 88% 30.02 in 2.5 mi WNW 18.4 mph 26.5 mph 0.03 in Rain Rain
2:44 PM 71.6 °F - 69.8 °F 94% 30.03 in 5.0 mi North 12.7 mph 26.5 mph 0.04 in Rain Light Rain
2:53 PM 73.0 °F - 70.0 °F 90% 30.03 in 10.0 mi NNW 8.1 mph - 0.04 in   Overcast
3:53 PM 73.0 °F - 66.9 °F 81% 30.06 in 10.0 mi NNW 12.7 mph 20.7 mph N/A   Mostly Cloudy
4:53 PM 73.0 °F - 68.0 °F 84% 30.07 in 10.0 mi North 5.8 mph - N/A   Mostly Cloudy
4:59 PM 73.4 °F - 68.0 °F 83% 30.07 in 10.0 mi North 6.9 mph - N/A   Scattered Clouds
5:53 PM 72.0 °F - 68.0 °F 87% 30.09 in 10.0 mi North 4.6 mph - N/A   Clear
6:53 PM 71.1 °F - 66.0 °F 84% 30.11 in 10.0 mi NNW 10.4 mph - N/A   Partly Cloudy
7:06 PM 69.8 °F - 64.4 °F 83% 30.12 in 10.0 mi NNW 15.0 mph - N/A   Mostly Cloudy
7:29 PM 66.2 °F - 62.6 °F 88% 30.13 in 10.0 mi NNW 17.3 mph 25.3 mph N/A   Overcast
7:40 PM 66.2 °F - 62.6 °F 88% 30.14 in 10.0 mi NNW 16.1 mph - N/A   Overcast
7:53 PM 64.9 °F - 61.0 °F 87% 30.15 in 10.0 mi NNW 13.8 mph 23.0 mph N/A   Overcast
8:16 PM 64.4 °F - 59.0 °F 83% 30.16 in 10.0 mi North 10.4 mph 20.7 mph N/A   Overcast
8:53 PM 62.1 °F - 57.0 °F 84% 30.17 in 10.0 mi North 15.0 mph 24.2 mph N/A   Overcast
9:53 PM 60.1 °F - 55.0 °F 83% 30.20 in 10.0 mi North 15.0 mph 28.8 mph N/A   Scattered Clouds
10:53 PM 57.9 °F - 51.1 °F 78% 30.21 in 10.0 mi North 19.6 mph 25.3 mph N/A   Partly Cloudy
11:53 PM 55.9 °F - 50.0 °F 80% 30.22 in 10.0 mi North 15.0 mph - N/A   Clear